Find Starlink 6321

NORAD ID: 57340 Int'l Des: 2023-099 Owner: SPXS Country: US Constellation: starlink operational
LEOCIRCULAR

当前视图

正在加载3D地球...

About Starlink 6321

Starlink 6321 (NORAD 57340) is a starlink constellation satellite (v1.5) launched Jul 16, 2023 by SPXS of US. It operates in LEO, CIRCULAR orbit with a mass of 305.00 kg.

关于 Starlink 6321

正在加载描述...

即将过境

Passes for default location (London). Set your location on the main map for personalized predictions.

高度历史

Loading altitude history...

两行轨道根数

1 57340U 23099N 26169.00532379 .00000212 00000-0 17229-4 0 9995
2 57340 43.0041 46.2735 0001643 250.4929 109.5745 15.27577810161412
Epoch: Jun 18, 2026 • Age: 18 hours

当前状态

高度 482.8 km
速度 7.63 km/s
星下点 20.72°N, 20.7°E
发射日期 Jul 16, 2023
运行时间 2.9 years
类型 internet

技术详情

分类 Payload
质量 305.00 kg
干质量 290.00 kg
总质量 305.00 kg
长度 0.20 m
直径 2.80 m
跨度 9.00 m
形状 Box + pan
制造商 SPXS
平台类型 Starlink
阶段状态 In Orbit
所有者/国家 SPXS/US

Most Searched